Time,TemperatureF,DewpointF,PressureIn,WindDirection,WindDirectionDegrees,WindSpeedMPH,WindSpeedGustMPH,Humidity,HourlyPrecipIn,Conditions,Clouds,dailyrainin,SoftwareType,DateUTC
2013-03-05 00:00:00,20.6,20.6,19.99,NNW,337,8.0,20.0,100,0.00,,---,0.00,VWS V13.00,2013-03-05 05:00:00,
2013-03-05 00:30:00,20.7,20.7,20.00,West,275,5.0,20.0,100,0.00,,---,0.00,VWS V13.00,2013-03-05 05:30:00,
2013-03-05 01:00:00,20.7,20.7,19.99,West,276,5.0,17.0,100,0.00,,---,0.00,VWS V13.00,2013-03-05 06:00:00,
2013-03-05 01:30:00,20.8,20.8,19.99,NW,312,5.0,16.0,100,0.00,,---,0.00,VWS V13.00,2013-03-05 06:30:00,
2013-03-05 02:00:00,20.8,20.8,19.99,NW,316,4.0,22.0,100,0.00,,---,0.00,VWS V13.00,2013-03-05 07:00:00,
2013-03-05 02:30:00,20.6,20.6,19.99,NW,309,9.0,19.0,100,0.00,,---,0.00,VWS V13.00,2013-03-05 07:30:00,
2013-03-05 03:00:00,20.7,20.7,19.99,WNW,292,7.0,17.0,100,0.00,,---,0.00,VWS V13.00,2013-03-05 08:00:00,
2013-03-05 04:30:00,20.8,20.8,19.99,WNW,293,11.0,17.0,100,0.00,,---,0.00,VWS V13.00,2013-03-05 09:30:00,
2013-03-05 05:00:00,20.8,20.8,19.99,West,270,8.0,16.0,100,0.00,,---,0.00,VWS V13.00,2013-03-05 10:00:00,
2013-03-05 05:30:00,20.9,20.9,19.99,WNW,297,3.0,13.0,100,0.00,,---,0.00,VWS V13.00,2013-03-05 10:30:00,
2013-03-05 06:00:00,20.9,20.9,20.00,WNW,299,7.0,15.0,100,0.00,,---,0.00,VWS V13.00,2013-03-05 11:00:00,
2013-03-05 06:30:00,20.6,20.6,19.99,WNW,301,9.0,17.0,100,0.00,,---,0.00,VWS V13.00,2013-03-05 11:30:00,
2013-03-05 07:00:00,21.0,21.0,19.99,WNW,289,8.0,15.0,100,0.00,,---,0.00,VWS V13.00,2013-03-05 12:00:00,
2013-03-05 07:30:00,21.8,21.8,19.99,West,277,5.0,18.0,100,0.00,,---,0.00,VWS V13.00,2013-03-05 12:30:00,
2013-03-05 08:00:00,22.7,22.7,20.00,West,273,5.0,13.0,100,0.00,,---,0.00,VWS V13.00,2013-03-05 13:00:00,
2013-03-05 08:30:00,22.7,22.7,20.00,NW,304,3.0,15.0,100,0.00,,---,0.00,VWS V13.00,2013-03-05 13:30:00,
2013-03-05 09:00:00,23.8,23.8,19.99,West,272,5.0,12.0,100,0.00,,---,0.00,VWS V13.00,2013-03-05 14:00:00,
2013-03-05 09:30:00,23.8,23.8,19.99,West,267,6.0,14.0,100,0.00,,---,0.00,VWS V13.00,2013-03-05 14:30:00,
2013-03-05 10:00:00,24.4,24.4,19.99,West,267,4.0,13.0,100,0.00,,---,0.00,VWS V13.00,2013-03-05 15:00:00,
2013-03-05 10:30:00,27.6,27.6,20.00,NW,320,4.0,11.0,100,0.00,,---,0.00,VWS V13.00,2013-03-05 15:30:00,
2013-03-05 11:00:00,28.6,28.6,19.99,West,275,6.0,10.0,100,0.00,,---,0.00,VWS V13.00,2013-03-05 16:00:00,
2013-03-05 11:30:00,30.7,30.7,19.99,West,280,6.0,11.0,100,0.00,,---,0.00,VWS V13.00,2013-03-05 16:30:00,
2013-03-05 12:00:00,30.4,30.4,19.99,West,275,8.0,12.0,100,0.00,,---,0.00,VWS V13.00,2013-03-05 17:00:00,
2013-03-05 12:30:00,33.3,33.3,19.99,WSW,257,9.0,14.0,100,0.00,,---,0.00,VWS V13.00,2013-03-05 17:30:00,
2013-03-05 13:00:00,34.9,34.9,19.99,NW,313,8.0,12.0,100,0.00,,---,0.00,VWS V13.00,2013-03-05 18:00:00,
2013-03-05 13:30:00,34.2,34.2,19.99,North,0,2.0,10.0,100,0.00,,---,0.00,VWS V13.00,2013-03-05 18:30:00,
2013-03-05 14:00:00,34.6,34.6,19.99,North,11,5.0,12.0,100,0.00,,---,0.00,VWS V13.00,2013-03-05 19:00:00,
2013-03-05 14:30:00,35.9,35.9,19.99,North,9,1.0,11.0,100,0.00,,---,0.00,VWS V13.00,2013-03-05 19:30:00,
2013-03-05 15:00:00,34.5,34.5,20.00,NNE,24,0.0,9.0,100,0.00,,---,0.00,VWS V13.00,2013-03-05 20:00:00,
2013-03-05 15:30:00,34.3,34.3,19.99,NNE,16,7.0,10.0,100,0.00,,---,0.00,VWS V13.00,2013-03-05 20:30:00,
2013-03-05 16:00:00,33.9,33.9,19.99,North,359,5.0,8.0,100,0.00,,---,0.00,VWS V13.00,2013-03-05 21:00:00,
2013-03-05 16:30:00,33.6,33.6,20.00,North,351,7.0,7.0,100,0.00,,---,0.00,VWS V13.00,2013-03-05 21:30:00,
2013-03-05 17:00:00,33.0,33.0,20.00,North,0,4.0,10.0,100,0.00,,---,0.00,VWS V13.00,2013-03-05 22:00:00,
2013-03-05 17:30:00,31.9,31.9,19.99,North,1,4.0,8.0,100,0.00,,---,0.00,VWS V13.00,2013-03-05 22:30:00,
2013-03-05 18:00:00,31.0,31.0,19.99,North,355,1.0,7.0,100,0.00,,---,0.00,VWS V13.00,2013-03-05 23:00:00,
2013-03-05 18:30:00,30.4,30.4,19.99,North,0,3.0,6.0,100,0.00,,---,0.00,VWS V13.00,2013-03-05 23:30:00,
2013-03-05 19:00:00,30.0,30.0,19.99,North,0,3.0,6.0,100,0.00,,---,0.00,VWS V13.00,2013-03-06 00:00:00,
2013-03-05 19:30:00,29.8,29.8,19.99,NNW,345,3.0,6.0,100,0.00,,---,0.00,VWS V13.00,2013-03-06 00:30:00,
2013-03-05 20:00:00,29.4,29.4,19.99,NNW,338,3.0,5.0,100,0.00,,---,0.00,VWS V13.00,2013-03-06 01:00:00,
2013-03-05 20:30:00,28.9,28.9,19.99,NNW,338,1.0,5.0,100,0.00,,---,0.00,VWS V13.00,2013-03-06 01:30:00,
2013-03-05 21:00:00,28.4,28.4,19.99,North,357,1.0,6.0,100,0.00,,---,0.00,VWS V13.00,2013-03-06 02:00:00,
2013-03-05 21:30:00,28.0,28.0,19.99,North,359,3.0,5.0,100,0.00,,---,0.00,VWS V13.00,2013-03-06 02:30:00,
2013-03-05 22:00:00,27.2,27.2,19.99,North,359,0.0,4.0,100,0.00,,---,0.00,VWS V13.00,2013-03-06 03:00:00,
2013-03-05 22:30:00,27.9,27.9,19.99,North,359,3.0,3.0,100,0.00,,---,0.00,VWS V13.00,2013-03-06 03:30:00,
2013-03-05 23:00:00,27.9,27.9,19.99,North,359,2.0,4.0,100,0.00,,---,0.00,VWS V13.00,2013-03-06 04:00:00,
2013-03-05 23:30:00,28.1,28.1,20.00,North,359,1.0,3.0,100,0.00,,---,0.00,VWS V13.00,2013-03-06 04:30:00,